RH
81 57 79 68 62 43 52 75 62 50 62 91 98 100 100 66 64 70 80 64 84 98 100 100 94 35 33 27 31 31 31 30 37 36 30 21 22 23 24 28 31 35 31
100 66 64 100 86 58 73 63 45 54 47 87 89 76 94 88 53 59 38 64 100 100 100 85 50 26 28 30 39 34 42 47 45 38 27 22 23 23 24 29 44 34 38
90 100 83 94 66 96 88 69 57 56 34 75 91 100 96 59 100 99 100 100 93 78 74 67 25 28 27 35 34 55 59 58 50 39 28 22 23 24 25 32 52 49 62
100 100 82 59 50 86 86 62 58 58 50 58 94 89 86 59 70 98 100 92 66 69 52 34 29 29 30 40 61 68 74 51 40 25 23 25 23 27 33 52 64 85 100
100 100 98 66 45 67 84 55 58 84 79 72 74 62 92 76 71 99 94 89 78 59 56 59 52 55 57 62 77 49 38 28 30 25 27 22 20 27 30 61 87 100 100
100 100 100 81 51 98 100 68 56 54 82 88 87 80 76 81 76 96 91 90 81 81 88 82 77 93 72 68 66 49 38 30 34 29 22 21 21 28 39 98 100 100 100
100 100 99 89 94 100 98 72 38 52 82 93 99 99 88 90 90 95 92 92 87 91 74 83 70 48 37 32 39 42 48 33 25 24 26 23 24 29 84 100 100 100 95
100 100 100 98 100 90 67 71 62 52 99 100 100 100 100 100 90 82 89 81 99 82 72 60 58 49 39 37 41 58 60 34 34 31 29 27 28 59 100 100 100 100 99
100 100 100 100 100 84 72 64 61 72 99 100 100 100 100 100 95 99 80 78 85 88 84 77 67 57 38 37 42 46 37 35 37 33 36 29 48 91 100 100 100 100 89
100 100 100 99 100 84 100 73 78 95 100 91 100 100 100 100 100 100 90 95 99 93 98 100 86 58 38 43 42 36 33 39 40 38 29 55 69 78 100 100 100 99 78
100 100 100 100 91 90 100 100 94 99 92 100 100 100 100 100 100 100 100 100 100 100 97 86 80 67 58 44 33 35 47 42 42 46 48 59 75 81 100 100 100 87 51
98 99 98 100 100 91 96 100 87 100 100 100 100 100 100 100 100 100 100 100 100 100 100 97 90 73 52 41 52 66 52 46 56 54 69 86 78 98 100 100 98 71 41
100 100 100 78 84 84 90 100 100 100 100 100 100 100 100 100 100 100 100 100 100 100 100 100 100 75 61 59 74 56 41 58 58 58 79 100 100 100 100 99 83 41 43
100 100 100 100 100 100 100 100 100 100 100 100 100 100 98 100 100 100 100 100 100 100 100 100 100 87 81 78 72 67 68 88 74 90 100 100 100 100 100 81 57 51 54
100 100 100 100 100 100 100 100 100 100 100 100 100 92 91 81 87 99 86 86 96 94 91 86 94 100 88 93 100 97 100 98 100 100 100 100 100 100 79 62 50 50 56
100 100 100 100 100 100 100 100 100 100 100 100 100 100 100 100 86 95 95 98 100 96 99 89 98 100 100 100 97 72 99 100 100 100 100 100 100 84 71 59 63 66 70
100 100 100 100 100 100 100 100 100 100 100 100 100 100 100 100 98 100 100 100 100 100 100 100 100 99 100 78 92 100 100 100 100 100 100 100 88 74 58 58 58 57 67
64 100 100 100 100 100 100 100 100 96 88 100 100 100 100 100 100 100 100 100 100 100 98 97 100 99 100 100 100 100 100 100 100 100 100 90 75 68 64 59 65 61 57
78 68 78 100 100 100 100 100 100 100 100 100 100 100 100 100 100 100 100 98 100 100 100 100 100 100 100 100 100 100 100 100 100 100 100 94 81 68 58 55 60 85 88
100 90 66 74 98 100 100 100 100 100 100 100 100 99 99 100 100 100 100 100 100 100 98 97 100 100 100 100 100 100 100 100 97 94 80 70 50 57 55 64 72 71 67
99 100 100 100 100 100 100 100 100 100 100 100 100 100 100 100 100 100 100 100 100 100 100 100 100 100 100 100 100 100 94 98 86 65 65 71 72 78 84 67 78 86 84
27 56 100 100 100 100 100 100 100 100 100 100 100 100 100 100 100 100 100 100 100 100 100 100 97 93 84 72 69 64 56 76 92 82 80 89 84 77 99 95 93 97 72
38 29 30 55 88 99 100 100 100 100 100 100 100 100 100 100 100 100 100 98 94 92 90 92 97 100 100 100 100 100 99 92 87 92 97 94 100 100 97 91 91 88 87
64 67 46 40 36 37 45 56 69 81 84 85 81 80 80 79 86 84 81 76 73 71 68 67 73 76 86 88 89 93 97 98 97 81 76 79 93 88 73 73 75 70 65
78 46 55 62 43 44 56 50 49 56 62 76 68 60 58 66 65 75 54 55 50 54 62 68 78 88 98 97 99 98 99 94 98 99 91 89 83 65 50 49 45 49 51
94 69 56 56 65 75 62 58 85 94 65 54 56 74 88 84 75 74 69 60 52 58 69 85 93 96 94 87 84 89 87 90 92 89 80 70 47 39 36 43 47 47 43
Wind_Speed
33 24 17 15 12 5 6 12 14 13 14 26 35 23 30 28 24 26 28 27 31 32 38 40 37 35 30 26 28 33 31 36 37 42 43 47 49 54 52 57 60 57 50
32 29 24 15 8 5 4 8 13 19 16 26 28 31 32 30 27 24 26 33 37 35 34 32 38 33 32 31 33 40 43 46 43 44 47 49 51 54 57 62 66 59 51
33 31 26 21 14 9 6 8 12 20 14 25 28 40 36 30 28 27 33 29 25 26 29 34 35 32 37 35 43 44 47 45 45 47 50 52 54 58 57 63 67 57 52
32 36 29 31 20 17 15 10 11 19 17 26 28 31 33 34 28 32 26 28 22 25 31 36 37 38 38 46 44 45 48 47 48 52 53 54 58 64 64 68 64 53 55
49 49 48 36 26 22 19 15 14 14 15 19 20 23 34 39 38 30 29 26 24 28 33 37 39 41 45 50 51 44 48 50 51 51 56 60 61 66 69 68 58 52 63
50 54 53 46 34 27 20 20 18 19 20 22 22 19 25 31 34 33 28 25 24 25 29 33 36 40 41 43 42 45 51 52 53 56 60 62 65 68 70 62 57 64 66
45 48 59 44 39 35 28 21 23 21 24 26 24 25 26 29 28 34 33 30 31 32 30 36 36 38 39 39 42 46 51 55 57 59 62 64 69 69 69 64 64 69 74
40 46 47 47 46 40 32 28 28 28 29 28 32 33 32 33 34 35 35 34 37 35 36 38 39 44 44 46 47 50 55 60 61 63 64 68 72 70 71 75 75 73 77
44 45 51 51 45 39 38 32 31 34 29 29 32 35 40 39 37 41 42 44 43 43 43 44 47 49 48 49 51 56 60 63 65 65 66 70 74 75 77 78 78 76 74
56 53 52 51 47 39 39 36 35 32 32 39 37 41 41 45 42 44 47 49 50 50 52 54 57 57 55 55 59 64 67 68 67 69 71 73 75 79 81 81 77 78 69
59 57 55 57 46 42 43 41 41 46 44 46 45 45 43 50 49 48 51 52 54 57 62 64 61 63 64 66 64 69 69 70 70 71 73 76 80 82 83 81 78 70 59
57 56 57 55 54 50 48 50 49 48 48 52 51 44 46 51 52 55 58 59 60 62 64 68 69 70 71 70 70 73 74 73 74 76 79 82 84 84 80 80 71 61 58
62 56 54 55 54 50 50 50 51 53 55 56 51 55 51 50 53 60 61 64 67 67 68 72 76 75 73 73 76 78 78 78 79 81 85 85 87 83 87 76 62 59 61
64 63 62 58 52 52 54 54 57 55 56 51 55 56 55 57 58 58 62 65 67 70 69 74 77 80 81 79 82 82 82 84 85 88 88 92 88 91 83 65 62 64 64
65 66 66 61 60 60 57 58 59 56 53 50 55 56 53 54 54 59 59 62 66 71 75 75 79 81 82 83 86 85 87 87 86 88 92 91 88 75 65 63 67 66 67
46 49 54 55 54 52 51 53 54 54 55 54 56 55 53 55 59 62 64 67 66 68 73 76 79 82 85 86 87 89 86 85 94 96 96 88 77 67 67 68 70 71 74
41 41 44 46 48 46 49 53 51 52 56 55 54 54 57 62 65 68 71 69 71 70 70 81 82 84 87 91 90 87 90 99 99 99 90 76 70 71 73 74 75 77 79
42 42 39 44 46 48 49 50 56 56 53 52 55 58 62 63 67 71 71 72 71 73 75 79 87 89 91 92 92 98 102 101 93 85 76 74 75 75 78 80 83 86 89
43 41 41 40 43 45 49 53 53 51 53 54 56 60 64 66 68 71 73 73 75 77 80 84 86 91 93 95 100 99 93 88 80 74 77 79 81 84 86 89 91 94 98
41 45 44 45 48 51 54 57 60 61 62 63 65 66 67 68 68 71 75 79 82 86 89 89 91 95 96 94 91 87 84 82 81 81 84 86 89 92 93 97 101 104 105
23 42 38 49 53 54 56 58 59 61 61 62 63 66 69 72 75 80 83 84 84 85 87 87 85 83 82 83 83 83 83 85 89 89 91 95 96 98 102 108 109 111 114
26 28 38 46 34 46 56 59 62 64 67 69 72 75 77 82 83 82 84 81 76 75 77 78 79 80 82 85 86 90 91 94 97 100 101 104 106 106 108 114 118 119 122
30 30 33 35 38 40 45 47 47 47 48 51 53 54 58 62 62 62 64 67 69 72 76 79 81 84 89 91 93 95 98 101 103 103 103 106 109 108 111 118 120 123 126
32 33 32 35 40 40 39 40 41 42 45 47 50 52 56 59 62 65 67 70 74 78 82 84 86 88 92 96 98 100 102 103 108 112 110 110 111 113 114 116 119 123 124
41 41 41 39 39 40 40 44 47 49 50 52 56 57 60 62 65 68 71 75 78 81 83 87 90 93 97 100 103 105 106 111 114 116 116 117 117 120 118 117 119 121 123
42 43 44 47 45 45 49 50 49 51 57 59 58 61 67 69 71 74 78 82 84 87 89 90 95 98 101 105 109 111 112 111 112 113 118 119 119 116 109 114 119 124 128
Wind_Direction
209 206 196 189 158 207 190 241 261 272 242 234 230 220 229 238 253 252 268 272 276 261 259 266 242 222 234 263 286 289 295 295 296 297 299 307 308 311 315 318 322 323 318
221 202 198 193 165 184 198 243 266 265 284 241 233 229 235 248 258 272 268 268 273 257 254 246 222 224 259 279 289 297 298 299 298 298 303 305 309 312 317 323 328 323 318
208 199 198 203 218 202 228 277 268 261 294 253 237 239 247 248 257 279 271 261 251 241 234 230 229 251 257 281 287 292 293 295 296 300 302 305 308 309 316 324 324 322 322
211 218 205 211 220 238 241 256 284 276 279 270 264 253 246 244 262 277 250 241 244 229 224 225 239 252 267 279 285 288 289 295 296 299 301 304 308 311 317 323 322 319 322
240 232 222 217 226 238 246 252 255 256 287 275 282 271 251 253 261 264 245 245 242 236 237 242 253 266 272 275 279 285 291 292 296 299 300 302 306 311 317 322 323 315 310
229 215 217 219 229 234 236 246 248 263 286 298 276 283 268 267 268 257 243 243 249 250 254 259 264 273 280 278 283 285 291 293 294 297 298 306 307 311 320 320 314 304 306
203 215 222 226 229 233 238 240 258 273 286 291 280 279 286 269 257 256 248 248 250 259 262 268 268 275 286 284 286 291 295 294 293 296 304 305 308 314 321 312 306 305 308
206 208 221 229 230 230 238 252 263 268 278 276 276 276 279 275 262 261 250 255 258 263 268 272 284 286 283 287 292 296 295 293 294 300 305 307 309 316 313 312 306 308 308
205 213 223 226 230 235 242 249 257 263 269 276 281 281 274 274 269 258 252 258 260 270 278 279 281 283 284 287 289 290 292 295 296 302 305 307 312 315 312 308 306 305 308
210 213 215 225 226 234 238 253 263 260 267 277 276 280 271 270 263 255 258 262 267 275 279 280 281 285 291 291 292 296 297 298 298 302 306 311 311 312 308 305 304 306 305
213 219 227 230 233 238 243 252 263 262 270 277 276 272 268 260 258 255 251 260 266 273 276 279 282 283 290 294 296 297 297 297 302 306 308 309 310 310 306 303 306 305 298
224 228 229 230 235 244 251 254 260 265 268 273 275 264 265 261 261 260 255 259 266 273 277 277 279 281 284 292 299 297 298 302 306 305 307 308 308 306 301 302 299 295 294
223 225 234 239 244 245 253 254 258 263 267 267 262 264 260 258 261 260 262 263 265 270 277 278 281 283 288 293 296 295 298 304 304 305 306 306 305 299 300 299 294 292 295
227 231 233 237 240 243 245 252 256 261 262 261 259 261 260 259 261 263 266 268 267 271 277 280 282 286 289 292 294 297 301 304 304 305 303 304 299 299 297 291 290 294 295
227 231 235 236 240 244 247 252 256 258 256 258 256 263 264 266 264 264 272 274 272 272 276 282 283 286 291 294 295 299 299 301 300 297 297 297 296 293 291 289 290 293 294
221 229 232 235 238 241 246 250 250 251 255 258 259 264 264 271 275 274 275 280 280 279 281 284 286 288 289 292 293 296 297 295 295 297 295 294 293 290 289 290 291 292 292
226 229 228 233 237 240 241 246 251 254 261 264 262 266 270 273 274 277 279 281 283 284 283 286 287 288 288 291 293 293 291 293 293 293 293 292 288 287 288 290 290 289 290
225 225 231 236 243 242 250 250 252 255 262 268 271 274 275 276 274 276 279 280 280 281 282 283 287 290 291 291 290 287 291 291 290 292 290 289 289 290 291 291 291 291 291
237 233 236 245 249 254 256 260 260 264 267 270 270 268 268 270 273 274 278 281 283 283 283 284 284 286 287 285 286 288 289 288 289 290 291 291 291 290 290 290 291 290 290
235 246 245 244 248 252 254 256 257 260 263 264 266 267 270 275 278 279 278 277 278 280 282 282 282 283 283 282 283 284 286 287 288 288 288 288 288 288 290 290 290 289 289
231 221 231 245 249 252 255 260 263 264 266 269 271 272 272 273 274 274 275 278 280 280 280 278 279 282 283 283 286 286 286 287 286 286 287 288 290 291 290 291 293 293 293
258 244 234 229 224 236 246 252 256 257 260 263 264 264 265 269 271 272 273 273 273 278 283 285 284 286 285 285 285 285 287 288 291 290 291 292 293 294 293 291 292 292 291
266 266 250 243 244 248 247 245 246 248 251 255 258 260 261 264 269 273 276 279 281 284 286 286 286 286 288 288 289 289 289 289 290 291 292 292 292 293 292 292 292 292 291
254 261 260 257 254 253 256 259 262 268 272 274 276 277 277 278 280 282 283 285 286 286 287 288 289 289 288 289 289 289 289 289 289 291 292 291 291 292 291 290 289 289 288
261 258 261 263 262 260 262 263 264 267 270 272 273 276 277 280 281 283 285 289 290 292 293 291 290 290 290 289 289 291 290 288 291 292 292 293 291 291 291 290 290 289 287
259 256 261 263 264 266 267 270 271 276 275 277 280 280 279 281 282 286 288 292 294 295 292 292 290 289 289 289 288 288 290 290 291 290 288 291 292 294 293 293 295 294 292